Regional Weather Roundup
Issued by NWS

Home | Current Version | Previous Version | Text Only | Print | Product List | Glossary Off
Versions: 1 2 3 4 5 6 7 8 9 10 11 12 13 14 15 16 17 18 19 20 21 22 23 24 25 26 27 28 29 30 31 32 33 34 35 36 37 38 39 40 41 42 43 44 45 46 47 48 49 50

000
ASUS43 KLSX 162359
RWRMO

WEATHER SUMMARY FOR MISSOURI
NATIONAL WEATHER SERVICE SPRINGFIELD MO
700 PM CDT TUE SEP 16 2014

NOTE: "FAIR" INDICATES FEW OR NO CLOUDS BELOW 12,000 FEET WITH NO
       SIGNIFICANT WEATHER AND/OR OBSTRUCTIONS TO VISIBILITY.
       CURRENT SKY AND/OR WEATHER CONDITIONS ARE NOT AVAILABLE FOR
       CHILLICOTHE AND FARMINGTON.

MOZ001>031-035>038-043-044-053-054-170100-
...NORTHERN AND WESTERN MISSOURI...

CITY           SKY/WX    TMP DP  RH WIND       PRES   REMARKS
KANSAS CTY INT PTCLDY    68  51  54 E9        30.04F
6HR MIN TEMP:  64; 6HR MAX TEMP:  70;

KANSAS C DTWN  CLEAR     70  54  56 E7        30.03F
6HR MIN TEMP:  67; 6HR MAX TEMP:  74;

LEE`S SUMMIT   CLEAR     68  53  58 SE5       30.05F
6HR MIN TEMP:  65; 6HR MAX TEMP:  72;

ST JOSEPH      CLEAR     65  53  65 SE7       30.04F
6HR MIN TEMP:  64; 6HR MAX TEMP:  70;

KIRKSVILLE     CLEAR     62  51  67 SE3       30.09S
6HR MIN TEMP:  62; 6HR MAX TEMP:  68;


$$
MOZ066>068-077>081-088>096-101>105-170100-
...SOUTHWEST MISSOURI...

CITY           SKY/WX    TMP DP  RH WIND       PRES   REMARKS
SPRINGFIELD    CLOUDY    70  62  76 S7        30.06F
6HR MIN TEMP:  68; 6HR MAX TEMP:  77;

JOPLIN         CLEAR     72  64  76 SE5       30.05F
6HR MIN TEMP:  67; 6HR MAX TEMP:  75;


$$
MOZ032>034-039>042-045>050-055>058-069>072-170100-
...CENTRAL MISSOURI...

CITY           SKY/WX    TMP DP  RH WIND       PRES   REMARKS
COLUMBIA       CLEAR     64  55  72 E5        30.08F
6HR MIN TEMP:  64; 6HR MAX TEMP:  72;

JEFFERSON CITY CLEAR     67  54  63 SE5       30.07S
6HR MIN TEMP:  65; 6HR MAX TEMP:  72;

ROLLA          HAZE      63  54  72 SE3       30.08S VSB 3/4
6HR MIN TEMP:  60; 6HR MAX TEMP:  68;

SEDALIA        CLEAR     68  54  60 SE3       30.07F
6HR MIN TEMP:  65; 6HR MAX TEMP:  72;

OSAGE BEACH    CLEAR     66  55  68 S6        30.08S

$$
MOZ051-052-059>065-170100-
...EAST CENTRAL MISSOURI...

CITY           SKY/WX    TMP DP  RH WIND       PRES   REMARKS
ST LOUIS INTL  PTCLDY    62  52  69 E7        30.11S
6HR MIN TEMP:  62; 6HR MAX TEMP:  67;

SPIRIT OF STL  PTCLDY    61  56  83 CALM      30.09F
6HR MIN TEMP:  61; 6HR MAX TEMP:  68;

ST CHARLES     CLEAR     62  52  69 E5        30.10S
6HR MIN TEMP:  60; 6HR MAX TEMP:  67;


$$
MOZ072>076-082>087-097>100-106>115-170100-
...SOUTH CENTRAL AND SOUTHEAST MISSOURI...

CITY           SKY/WX    TMP DP  RH WIND       PRES   REMARKS
CAPE GIRARDEAU CLEAR     61  53  75 NE7       30.10S
6HR MIN TEMP:  61; 6HR MAX TEMP:  70;

FARMINGTON     CLOUDY    63  54  72 E7        30.12S
6HR MIN TEMP:  63; 6HR MAX TEMP:  70;

POPLAR BLUFF   CLOUDY    67  56  67 NE5       30.07F
6HR MIN TEMP:  67; 6HR MAX TEMP:  73;

WEST PLAINS    CLOUDY    66  58  75 SE5       30.10F
6HR MIN TEMP:  66; 6HR MAX TEMP:  69;


$$


USA.gov is the U.S. government's official web portal to all federal, state and local government web resources and services.